Location: Unspecified
(0.0000°N, 0.0000°E)
Time: 22:18:32
(UTC+00:00)

A-11 Canister half - Visible Passes

Search period start: 01 October 2016 00:00
Search period end: 11 October 2016 00:00
Orbit: 1517 x 1683 km, 47.2° (Epoch: 30 September)

Date Brightness Start Highest point End Pass type
(mag) Time Alt. Az. Time Alt. Az. Time Alt. Az.
01 Oct 10.8 02:07:59 19° SE 02:07:59 19° SE 02:10:06 10° SE visible
01 Oct 10.4 04:06:12 18° SW 04:06:12 18° SW 04:11:43 10° S visible
02 Oct 11.2 01:46:38 12° SE 01:46:38 12° SE 01:47:09 10° SE visible
02 Oct 10.4 03:44:51 19° SSW 03:44:51 19° SSW 03:49:12 10° S visible
03 Oct 10.6 03:23:26 17° SSW 03:23:26 17° SSW 03:26:39 10° S visible
04 Oct 10.8 03:01:56 15° S 03:01:56 15° S 03:04:02 10° S visible
05 Oct 11.0 02:40:22 13° S 02:40:22 13° S 02:41:23 10° S visible
